www.pogodaiklimat.ru

Погода и климат >> Архив погоды >> Иран >> Bam


ПОГОДА в Bam

  • Прогноз погоды в Bam
  • Монитор погоды в Bam
  • Климат города

АРХИВ ПОГОДЫ в Bam

Время (UTC), дата Ветер
(напр.,м/с)
 
Видим.   Явления Облачность Т
(С)
Тd
(С)
f
(%)
Тe
(С)
Тes
(С)
Комфортность P
(гПа)
Po
(гПа)
Тmin
(С)
Tmax
(С)
R
(мм)
R24
(мм)
S
(см)
09 11.08 С 5 10 км 1/1 1200 м
[Sc diur, vesp]
+40.1 -1.3 7 +36 +45 очень
жарко
996.0 886.5
12 11.08 С 5 10 км 1/1 1200 м
[Sc diur, vesp]
+40.7 -1.6 7 +37 +40 очень
жарко
994.8 885.2
15 11.08 С 3 10 км ясно +38.1 -3.7 7 +34 +34 очень
жарко
995.4 885.5 +41.5
18 11.08 З 2 10 км ясно +34.1 -4.8 8 +30 +30 жарко 995.9 886.7
21 11.08 З 4 10 км ясно +34.9 +3.4 14 +32 +32 жарко 994.7 885.9
00 12.08 З 3 6000 м мгла ясно +32.8 +5.4 18 +31 +31 жарко 995.4 886.3
03 12.08 З 3 10 км ясно +31.5 +8.6 24 +30 +32 жарко 998.2 888.2 +31.5
06 12.08 С 4 8000 м мгла ясно +33.2 +9.4 23 +32 +43 жарко 998.9 888.6
09 12.08 С 5 6000 м мгла ясно +37.7 +4.3 13 +35 +45 очень
жарко
996.0 886.7
12 12.08 С 5 8000 м мгла ясно +38.4 +4.5 12 +35 +39 очень
жарко
994.4 885.1
15 12.08 СЗ 5 8000 м мгла ясно +37.2 +4.0 13 +34 +34 очень
жарко
993.4 883.8 +39.3
18 12.08 С 6 8000 м мгла ясно +35.6 +5.6 16 +33 +33 жарко 994.6 884.9
21 12.08 СЗ 2 10 км ясно +32.5 +7.0 20 +31 +31 жарко 993.7 884.3
00 13.08 СЗ 4 10 км ясно +31.0 +5.7 20 +29 +29 жарко 993.4 883.9
03 13.08 З 2 10 км ясно +29.9 +7.1 24 +29 +31 жарко 994.8 884.8 +29.5
06 13.08 С 6 10 км ясно +32.9 +4.0 16 +30 +36 жарко 995.1 885.2
09 13.08 С 6 4000 м пыль ясно +36.1 +2.6 12 +33 +41 жарко 993.7 883.9
12 13.08 С 5 4000 м пыль ясно +37.2 -1.4 9 +33 +37 жарко 993.0 883.2
15 13.08 СЗ 2 10 км ясно +34.9 -2.9 9 +31 +31 жарко 994.1 883.5 +37.5
18 13.08 З 2 10 км ясно +32.0 -3.7 10 +28 +28 жарко 994.9 884.3
21 13.08 З 3 10 км ясно +28.8 -3.3 12 +26 +26 жарко 994.4 883.9
00 14.08 З 5 10 км ясно +29.5 -3.9 11 +26 +26 жарко 994.2 883.9
03 14.08 З 5 15 км ясно +29.3 -4.1 11 +26 +27 жарко 996.2 885.3 +28.1
06 14.08 З 2 10 км ясно +37.5 -5.3 6 +33 +49 жарко 995.6 885.7
09 14.08 С 6 10 км ясно +39.0 -7.4 5 +35 +42 очень
жарко
994.5 884.4
12 14.08 С 3 10 км ясно +39.6 -5.8 5 +35 +41 очень
жарко
993.7 883.9
15 14.08 С 2 10 км ясно +36.2 -6.4 6 +32 +32 жарко 994.9 884.4 +40.6
18 14.08 З 2 10 км ясно +31.9 -7.3 7 +28 +28 жарко 995.7 885.8
00 15.08 З 4 10 км ясно +28.8 -8.9 8 +25 +25 комфорт 995.1 884.9
03 15.08 З 4 10 км ясно +30.4 -8.9 7 +26 +28 жарко 996.8 886.2 +27.7
06 15.08 В 2 10 км ясно +38.6 -6.2 6 +34 +50 очень
жарко
996.9 886.9
09 15.08 С 4 10 км ясно +40.2 -6.6 5 +36 +49 очень
жарко
995.6 885.6
12 15.08 С 4 10 км ясно +39.6 -6.5 5 +35 +40 очень
жарко
994.9 884.8
15 15.08 С 3 10 км ясно +37.0 -7.4 6 +33 +33 жарко 995.9 885.5 +40.8
18 15.08 З 2 10 км ясно +32.1 -6.9 8 +28 +28 жарко 997.0 886.9
21 15.08 З 2 10 км ясно +30.3 -6.8 9 +27 +27 жарко 996.6 886.7
00 16.08 З 4 10 км ясно +28.5 -7.7 9 +25 +25 комфорт 997.1 886.8
03 16.08 З 4 10 км ясно +30.9 -6.5 8 +27 +28 жарко 998.6 888.0 +28.0
06 16.08 С 4 10 км ясно +37.6 -4.2 7 +33 +44 жарко 998.6 888.4
09 16.08 С 5 10 км ясно +38.8 -3.7 7 +35 +45 очень
жарко
998.1 887.8
12 16.08 С 5 10 км ясно +39.0 -4.0 6 +35 +38 очень
жарко
997.0 886.6
15 16.08 С 3 10 км ясно +36.8 -4.6 7 +33 +33 жарко 997.4 886.9 +40.1
18 16.08 З 2 10 км ясно +34.0 -4.4 8 +30 +30 жарко 998.0 888.2
21 16.08 З 2 10 км ясно +29.8 -4.9 10 +26 +26 жарко 998.1 887.8
03 17.08 З 4 7000 м пыль ясно +30.8 -2.7 11 +27 +29 жарко 999.0 888.4 +28.3
06 17.08 С 3 6000 м пыль ясно +36.5 +0.4 10 +33 +46 жарко 998.5 888.5
09 17.08 С 5 5000 м пыль ясно +37.4 +0.8 10 +34 +44 очень
жарко
997.2 886.8
12 17.08 С 5 5000 м пыль ясно +38.6 +0.1 9 +35 +38 очень
жарко
994.8 885.1
15 17.08 С 4 7000 м пыль ясно +36.3 -1.4 9 +32 +32 жарко 995.7 885.4 +39.3
18 17.08 З 2 8000 м пыль ясно +33.2 -1.2 11 +30 +30 жарко 996.3 886.4
21 17.08 З 3 8000 м пыль ясно +30.3 -1.8 12 +27 +27 жарко 995.6 885.4
00 18.08 З 4 10 км ясно +29.5 -1.7 13 +26 +26 жарко 995.5 885.4
03 18.08 З 3 10 км ясно +29.5 +0.4 15 +27 +29 жарко 997.1 886.5 +28.9

 

Местоположение метеостанции Bam (Иран): широта 29.10 долгота 58.40 высота над уровнем моря 1067 м.

В архиве по умолчанию представлена погода в Bam за последнюю неделю. Архивные данные за месяц целиком и за предыдущие месяцы, начиная с января 2011 года, Вы можете получить, выбрав интересующий диапазон дат из раскрывающегося списка и нажав кнопку "Ввод!".


*Определитесь, кто Вы:
робот инопланетянин человек

Внимание! Время в таблицах - всемирное. Для получения местного времени необходимо прибавить поправку, которая в Bam равна 3.5 ч.

Смотрите также архив погоды в соседних городах и на ближайших метеорологических станциях:

Погода в Kahnuj (Иран) (143 км)
Погода в Baft (Иран) (178 км)
Погода в Kerman (Иран) (188 км)
Погода в Zahedan (Иран) (244 км)
Погода в Sirjan (Иран) (263 км)
Погода в Bandarabbass (Иран) (289 км)
Погода в Iranshahr (Иран) (309 км)
Погода в Nehbandan (Иран) (312 км)
Погода в Zabol (Иран) (367 км)
Погода в Khasab (Оман) (385 км)

Пояснения к столбцам:

Ветер - указаны скорость ветра в м/с - средняя за 10 мин, порывы в срок и между сроками (в фигурных скобках) и направление, откуда дует ветер: С - северный, СВ - северо-восточный, В - восточный, ЮВ - юго-восточный, Ю - южный, ЮЗ - юго-западный, З - западный, СЗ - северо-западный.
Видимость - горизонтальная дальность видимости в метрах или километрах. При видимости от 1 до 10 км при отсутствии осадков обычно наблюдается дымка, при ухудшении видимости до 1 км и менее - туман. В сухую погоду видимость может ухудшаться дымом, пылью или мглою.
Явления - указаны атмосферные явления, наблюдавшиеся в срок или в последний час перед сроком; фигурными скобками обозначены явления, наблюдавшиеся между сроками (за 1-3 часа до срока); квадратными скобками обозначены град или гололедные отложения с указанием их диаметра в мм.
Облачность - указаны через наклонную черту общая и нижняя облачность в баллах и высота нижней границы облаков в метрах; квадратными скобками обозначены формы облаков: Ci - перистые, Cs - перисто-слоистые, Cc - перисто-кучевые, Ac - высококучевые, As - высокослоистые, Sc - слоисто-кучевые, Ns - слоисто-дождевые, Cu - кучевые, Cb - кучево-дождевые. Подробнее классификацию облаков см. в Атласе облаков (PDF).
T - Температура воздуха - температура, измеренная на высоте 2 м над землей.
Td - Температура точки росы - температура, при понижении до которой содержащийся в воздухе водяной пар достигнет насыщения.
f - Относительная влажность воздуха - влажноcть воздуха, измеренная на высоте 2 м над землей.
Te - Эффективная температура - температура, которую ощущает одетый по сезону человек в тени. Характеристика душности погоды. При расчете учитывается влияние влажности воздуха и скорости ветра на теплоощущения человека.
Tes - Эффективная температура на солнце - температура, которую ощущает человек, с поправкой на солнечный нагрев. Характеристика знойности погоды. Зависит от высоты солнца над горизонтом, облачности и скорости ветра. Ночью, в пасмурную погоду, а также при ветре 12 м/с и более поправка равна нулю.
P - Атмосферное давление - приведенное к уровню моря атмосферное давление.
Po - Атмосферное давление - измеренное на уровне метеостанции атмосферное давление.
Tmin - Минимальная температура - минимум температуры воздуха на высоте 2 м над землей.
Tmax - Максимальная температура - максимум температуры воздуха на высоте 2 м над землей.
R - Количество осадков - Количество выпавших осадков за период времени, мм. При наведении курсора мыши на число - период времени, за который выпало указанное количество осадков.
R24 - Количество осадков - Количество выпавших осадков за 24 часа, мм.
S - Снежный покров - Высота снежного покрова, см. При наведении курсора мыши на число - состояние снежного покрова и степень покрытия местности в баллах.